Time,TemperatureF,DewpointF,PressureIn,WindDirection,WindDirectionDegrees,WindSpeedMPH,WindSpeedGustMPH,Humidity,HourlyPrecipIn,Conditions,Clouds,dailyrainin,SolarRadiationWatts/m^2,SoftwareType,DateUTC
2013-07-06 00:00:00,73.7,70.9,30.06,ESE,113,0.0,5.0,91,0.04,,-RA,0.04,0.00,VWS V14.01,2013-07-06 04:00:00,
2013-07-06 00:01:00,73.7,70.9,30.06,ESE,113,0.0,5.0,91,0.04,,-RA,0.04,0.00,VWS V14.01,2013-07-06 04:01:00,
2013-07-06 00:06:00,73.7,71.2,30.06,ESE,110,2.0,4.0,92,0.04,,OVC027,0.04,0.00,VWS V14.01,2013-07-06 04:06:00,
2013-07-06 00:11:00,73.7,71.2,30.06,East,96,4.0,5.0,92,0.04,,OVC027,0.04,0.00,VWS V14.01,2013-07-06 04:11:00,
2013-07-06 00:16:00,74.0,71.8,30.06,East,96,4.0,6.0,93,0.04,,OVC027,0.04,0.00,VWS V14.01,2013-07-06 04:16:00,
2013-07-06 00:21:00,74.0,71.5,30.06,East,85,5.0,6.0,92,0.04,,OVC004,0.04,0.00,VWS V14.01,2013-07-06 04:21:00,
2013-07-06 00:26:00,74.0,71.8,30.06,East,80,4.0,9.0,93,0.04,,OVC004,0.04,0.00,VWS V14.01,2013-07-06 04:26:00,
2013-07-06 00:30:00,73.9,71.4,30.08,ESE,123,0.0,8.0,92,0.02,,FEW055,0.02,0.00,VWS V14.01,2013-07-06 04:30:00,
2013-07-06 00:31:00,74.0,71.5,30.06,ENE,67,6.0,6.0,92,0.02,,OVC004,0.04,0.00,VWS V14.01,2013-07-06 04:31:00,
2013-07-06 00:36:00,73.9,71.4,30.06,ENE,78,4.0,9.0,92,0.02,,OVC004,0.04,0.00,VWS V14.01,2013-07-06 04:36:00,
2013-07-06 00:41:00,73.9,71.4,30.06,East,84,6.0,9.0,92,0.02,,,0.04,0.00,VWS V14.01,2013-07-06 04:41:00,
2013-07-06 00:46:00,74.0,71.8,30.06,SE,138,6.0,10.0,93,0.02,,,0.04,0.00,VWS V14.01,2013-07-06 04:46:00,
2013-07-06 00:51:00,72.7,69.9,30.06,SE,126,4.0,11.0,91,0.24,,,0.26,0.00,VWS V14.01,2013-07-06 04:51:00,
2013-07-06 00:56:00,72.0,69.9,30.06,SSE,147,0.0,11.0,93,0.32,,,0.34,0.00,VWS V14.01,2013-07-06 04:56:00,
2013-07-06 01:00:00,73.7,70.9,30.06,ESE,113,0.0,5.0,91,0.04,,FEW055,0.04,0.00,VWS V14.01,2013-07-06 05:00:00,
2013-07-06 01:01:00,71.8,70.0,30.07,SSE,147,0.0,1.0,94,0.30,,,0.34,0.00,VWS V14.01,2013-07-06 05:01:00,
2013-07-06 01:06:00,71.8,70.3,30.07,SSE,150,1.0,4.0,95,0.31,, +RA,0.35,0.00,VWS V14.01,2013-07-06 05:06:00,
2013-07-06 01:11:00,71.8,70.3,30.07,SSE,147,0.0,4.0,95,0.33,, +RA,0.37,0.00,VWS V14.01,2013-07-06 05:11:00,
2013-07-06 01:16:00,71.6,70.1,30.06,SSE,147,0.0,4.0,95,0.36,, +RA,0.40,0.00,VWS V14.01,2013-07-06 05:16:00,
2013-07-06 01:21:00,71.3,69.5,30.06,SSE,154,0.0,7.0,94,0.40,,-RA,0.44,0.00,VWS V14.01,2013-07-06 05:21:00,
2013-07-06 01:26:00,71.3,69.8,30.06,SSE,153,0.0,7.0,95,0.41,,-RA,0.45,0.00,VWS V14.01,2013-07-06 05:26:00,
2013-07-06 01:30:00,74.0,71.8,30.06,ENE,77,4.0,9.0,93,0.04,,FEW055,0.04,0.00,VWS V14.01,2013-07-06 05:30:00,
2013-07-06 01:31:00,71.1,69.6,30.06,SSE,153,0.0,0.0,95,0.41,,-RA,0.45,0.00,VWS V14.01,2013-07-06 05:31:00,
2013-07-06 01:36:00,71.1,69.6,30.06,SSE,153,0.0,0.0,95,0.41,,-RA,0.45,0.00,VWS V14.01,2013-07-06 05:36:00,
2013-07-06 01:41:00,71.1,69.9,30.06,SSE,153,0.0,0.0,96,0.41,,SCT037,0.45,0.00,VWS V14.01,2013-07-06 05:41:00,
2013-07-06 01:46:00,71.1,69.9,30.06,SSE,153,0.0,0.0,96,0.41,,SCT037,0.45,0.00,VWS V14.01,2013-07-06 05:46:00,
2013-07-06 01:51:00,71.1,69.9,30.06,SSE,153,0.0,0.0,96,0.41,,SCT037,0.45,0.00,VWS V14.01,2013-07-06 05:51:00,
2013-07-06 01:56:00,71.1,69.9,30.06,SSE,153,0.0,0.0,96,0.41,,SCT037,0.45,0.00,VWS V14.01,2013-07-06 05:56:00,
2013-07-06 02:00:00,71.8,70.0,30.07,SSE,147,1.0,11.0,94,0.32,,FEW055,0.34,0.00,VWS V14.01,2013-07-06 06:00:00,
2013-07-06 02:01:00,71.1,70.2,30.06,SSE,153,0.0,0.0,97,0.11,,SCT037,0.45,0.00,VWS V14.01,2013-07-06 06:01:00,
2013-07-06 02:06:00,71.1,70.2,30.06,SSE,153,0.0,0.0,97,0.11,,SCT065,0.45,0.00,VWS V14.01,2013-07-06 06:06:00,
2013-07-06 02:11:00,71.1,70.2,30.06,SSE,153,0.0,0.0,97,0.11,,SCT065,0.45,0.00,VWS V14.01,2013-07-06 06:11:00,
2013-07-06 02:16:00,71.1,70.2,30.06,SSE,153,0.0,0.0,97,0.11,,SCT065,0.45,0.00,VWS V14.01,2013-07-06 06:16:00,
2013-07-06 02:21:00,71.3,70.4,30.06,SSE,153,0.0,0.0,97,0.11,,BKN060,0.45,0.00,VWS V14.01,2013-07-06 06:21:00,
2013-07-06 02:26:00,71.5,70.6,30.06,SE,145,0.0,4.0,97,0.11,,BKN060,0.45,0.00,VWS V14.01,2013-07-06 06:26:00,
2013-07-06 02:30:00,71.1,69.6,30.06,SSE,153,0.0,7.0,95,0.41,,FEW055,0.45,0.00,VWS V14.01,2013-07-06 06:30:00,
2013-07-06 02:31:00,71.3,70.4,30.05,SE,145,0.0,0.0,97,0.00,,BKN060,0.45,0.00,VWS V14.01,2013-07-06 06:31:00,
2013-07-06 02:36:00,71.5,70.6,30.05,SE,138,0.0,5.0,97,0.00,,BKN060,0.45,0.00,VWS V14.01,2013-07-06 06:36:00,
2013-07-06 02:41:00,71.5,70.6,30.05,SE,138,0.0,5.0,97,0.00,,OVC060,0.45,0.00,VWS V14.01,2013-07-06 06:41:00,
2013-07-06 02:46:00,71.3,70.4,30.05,SE,138,0.0,5.0,97,0.00,,OVC060,0.45,0.00,VWS V14.01,2013-07-06 06:46:00,
2013-07-06 02:51:00,71.3,70.4,30.05,SE,138,0.0,5.0,97,0.00,,OVC060,0.45,0.00,VWS V14.01,2013-07-06 06:51:00,
2013-07-06 02:56:00,71.5,70.6,30.05,SE,138,0.0,5.0,97,0.00,,OVC060,0.45,0.00,VWS V14.01,2013-07-06 06:56:00,
2013-07-06 03:00:00,71.1,70.2,30.06,SSE,153,0.0,0.0,97,0.41,,FEW055,0.45,0.00,VWS V14.01,2013-07-06 07:00:00,
2013-07-06 03:01:00,71.3,70.4,30.05,SE,138,0.0,5.0,97,0.00,,OVC060,0.45,0.00,VWS V14.01,2013-07-06 07:01:00,
2013-07-06 03:06:00,71.5,70.6,30.05,SE,138,1.0,1.0,97,0.00,,OVC011,0.45,0.00,VWS V14.01,2013-07-06 07:06:00,
2013-07-06 03:11:00,71.5,70.6,30.05,SE,138,1.0,3.0,97,0.00,,OVC011,0.45,0.00,VWS V14.01,2013-07-06 07:11:00,
2013-07-06 03:16:00,71.5,70.6,30.04,SE,138,0.0,3.0,97,0.00,,OVC011,0.45,0.00,VWS V14.01,2013-07-06 07:16:00,
2013-07-06 03:21:00,71.3,70.4,30.04,SE,138,0.0,3.0,97,0.00,,OVC009,0.45,0.00,VWS V14.01,2013-07-06 07:21:00,
2013-07-06 03:25:00,71.3,70.1,30.04,SE,138,0.0,3.0,96,0.00,,OVC009,0.45,0.00,VWS V14.01,2013-07-06 07:25:00,
2013-07-06 03:30:00,71.3,70.1,30.04,SE,138,2.0,3.0,96,0.00,,OVC009,0.45,0.00,VWS V14.01,2013-07-06 07:30:00,
2013-07-06 03:35:00,71.3,70.1,30.04,SE,138,2.0,3.0,96,0.00,,OVC009,0.45,0.00,VWS V14.01,2013-07-06 07:35:00,
2013-07-06 03:40:00,71.5,70.0,30.04,SE,138,0.0,4.0,95,0.00,,OVC009,0.45,0.00,VWS V14.01,2013-07-06 07:40:00,
2013-07-06 03:45:00,71.5,70.0,30.04,SE,138,0.0,4.0,95,0.00,,OVC009,0.45,0.00,VWS V14.01,2013-07-06 07:45:00,
2013-07-06 03:50:00,71.6,70.1,30.04,SE,138,2.0,4.0,95,0.00,,OVC009,0.45,0.00,VWS V14.01,2013-07-06 07:50:00,
2013-07-06 03:55:00,71.8,70.0,30.04,SE,138,2.0,4.0,94,0.00,,OVC009,0.45,0.00,VWS V14.01,2013-07-06 07:55:00,
2013-07-06 04:00:00,72.0,69.9,30.04,SE,138,0.0,4.0,93,0.00,,OVC009,0.45,0.00,VWS V14.01,2013-07-06 08:00:00,
2013-07-06 04:05:00,72.1,70.0,30.04,SE,138,0.0,2.0,93,0.00,,OVC007,0.45,0.00,VWS V14.01,2013-07-06 08:05:00,
2013-07-06 04:10:00,72.1,69.7,30.04,SE,138,0.0,2.0,92,0.00,,OVC007,0.45,0.00,VWS V14.01,2013-07-06 08:10:00,
2013-07-06 04:15:00,72.3,70.2,30.04,East,100,2.0,4.0,93,0.00,,OVC007,0.45,0.00,VWS V14.01,2013-07-06 08:15:00,
2013-07-06 04:20:00,72.1,69.7,30.04,East,100,2.0,4.0,92,0.00,,OVC007,0.45,0.00,VWS V14.01,2013-07-06 08:20:00,
2013-07-06 04:25:00,72.3,69.8,30.04,East,100,3.0,4.0,92,0.00,,OVC007,0.45,0.00,VWS V14.01,2013-07-06 08:25:00,
2013-07-06 04:30:00,72.1,69.7,30.04,East,100,1.0,4.0,92,0.00,,OVC007,0.45,0.00,VWS V14.01,2013-07-06 08:30:00,
2013-07-06 04:35:00,72.3,70.2,30.04,East,100,0.0,3.0,93,0.00,,OVC007,0.45,0.00,VWS V14.01,2013-07-06 08:35:00,
2013-07-06 04:40:00,72.3,70.2,30.04,East,100,0.0,3.0,93,0.00,,OVC007,0.45,0.00,VWS V14.01,2013-07-06 08:40:00,
2013-07-06 04:45:00,72.3,70.2,30.04,East,100,0.0,3.0,93,0.00,,OVC007,0.45,0.00,VWS V14.01,2013-07-06 08:45:00,
2013-07-06 04:50:00,72.3,70.2,30.04,East,100,0.0,3.0,93,0.00,,OVC007,0.45,0.00,VWS V14.01,2013-07-06 08:50:00,
2013-07-06 04:55:00,72.3,70.2,30.04,East,100,0.0,3.0,93,0.00,,OVC007,0.45,0.00,VWS V14.01,2013-07-06 08:55:00,
2013-07-06 05:00:00,72.3,70.2,30.03,East,100,2.0,4.0,93,0.00,,OVC007,0.45,0.00,VWS V14.01,2013-07-06 09:00:00,
2013-07-06 05:05:00,72.3,69.8,30.03,East,100,0.0,3.0,92,0.00,,OVC005,0.45,0.00,VWS V14.01,2013-07-06 09:05:00,
2013-07-06 05:10:00,72.1,69.7,30.03,East,100,0.0,4.0,92,0.00,,OVC005,0.45,0.00,VWS V14.01,2013-07-06 09:10:00,
2013-07-06 05:15:00,72.1,69.7,30.04,East,100,0.0,4.0,92,0.00,,OVC005,0.45,0.00,VWS V14.01,2013-07-06 09:15:00,
2013-07-06 05:20:00,72.1,70.0,30.04,East,100,2.0,4.0,93,0.00,,OVC005,0.45,0.00,VWS V14.01,2013-07-06 09:20:00,
2013-07-06 05:25:00,72.3,70.2,30.04,East,100,0.0,4.0,93,0.00,,OVC005,0.45,0.00,VWS V14.01,2013-07-06 09:25:00,
2013-07-06 05:30:00,72.3,70.2,30.04,East,100,0.0,4.0,93,0.00,,OVC005,0.45,0.00,VWS V14.01,2013-07-06 09:30:00,
2013-07-06 05:35:00,72.3,70.2,30.04,East,100,4.0,4.0,93,0.00,,OVC005,0.45,0.00,VWS V14.01,2013-07-06 09:35:00,
2013-07-06 05:40:00,72.3,70.2,30.04,ESE,104,0.0,4.0,93,0.00,,OVC003,0.45,0.00,VWS V14.01,2013-07-06 09:40:00,
2013-07-06 05:45:00,72.3,70.5,30.05,ESE,104,5.0,5.0,94,0.00,,OVC003,0.45,0.00,VWS V14.01,2013-07-06 09:45:00,
2013-07-06 05:50:00,72.1,70.3,30.05,ESE,114,4.0,6.0,94,0.00,,OVC003,0.45,0.00,VWS V14.01,2013-07-06 09:50:00,
2013-07-06 05:55:00,72.3,70.5,30.05,ESE,114,3.0,6.0,94,0.00,,OVC003,0.45,0.00,VWS V14.01,2013-07-06 09:55:00,
2013-07-06 06:00:00,72.5,71.0,30.05,ESE,114,3.0,6.0,95,0.00,,OVC003,0.45,0.00,VWS V14.01,2013-07-06 10:00:00,
2013-07-06 06:05:00,72.5,71.0,30.05,ESE,114,0.0,4.0,95,0.00,,OVC003,0.45,0.00,VWS V14.01,2013-07-06 10:05:00,
2013-07-06 06:10:00,72.5,71.0,30.05,ESE,114,3.0,4.0,95,0.00,,OVC003,0.45,0.00,VWS V14.01,2013-07-06 10:10:00,
2013-07-06 06:15:00,72.5,71.0,30.06,ESE,115,1.0,5.0,95,0.00,,OVC003,0.45,0.00,VWS V14.01,2013-07-06 10:15:00,
2013-07-06 06:20:00,72.7,71.2,30.06,ESE,115,0.0,5.0,95,0.00,,-RA,0.45,0.00,VWS V14.01,2013-07-06 10:20:00,
2013-07-06 06:25:00,72.5,71.0,30.06,ESE,115,0.0,5.0,95,0.00,,-RA,0.45,0.00,VWS V14.01,2013-07-06 10:25:00,
2013-07-06 06:30:00,72.5,71.0,30.06,ESE,115,1.0,5.0,95,0.00,,-RA,0.45,0.00,VWS V14.01,2013-07-06 10:30:00,
2013-07-06 06:35:00,72.3,70.8,30.06,ESE,121,0.0,3.0,95,0.00,,-RA,0.45,5.00,VWS V14.01,2013-07-06 10:35:00,
2013-07-06 06:40:00,72.5,71.3,30.06,ESE,121,1.0,3.0,96,0.00,,OVC027,0.45,9.00,VWS V14.01,2013-07-06 10:40:00,
2013-07-06 06:45:00,72.5,71.3,30.05,SE,140,0.0,4.0,96,0.00,,OVC027,0.45,11.00,VWS V14.01,2013-07-06 10:45:00,
2013-07-06 06:50:00,72.5,71.3,30.05,SE,140,2.0,4.0,96,0.00,,OVC027,0.45,14.00,VWS V14.01,2013-07-06 10:50:00,
2013-07-06 06:55:00,72.5,71.3,30.05,SE,140,0.0,4.0,96,0.00,,OVC027,0.45,19.00,VWS V14.01,2013-07-06 10:55:00,
2013-07-06 07:00:00,72.5,71.3,30.06,SE,140,0.0,4.0,96,0.00,,OVC027,0.45,26.00,VWS V14.01,2013-07-06 11:00:00,
2013-07-06 07:05:00,72.7,71.5,30.06,SE,140,1.0,4.0,96,0.00,,OVC027,0.45,21.00,VWS V14.01,2013-07-06 11:05:00,
2013-07-06 07:10:00,72.5,71.3,30.06,SE,140,0.0,4.0,96,0.00,,OVC027,0.45,30.00,VWS V14.01,2013-07-06 11:10:00,
2013-07-06 07:15:00,72.7,71.5,30.07,SE,140,2.0,5.0,96,0.00,,OVC027,0.45,32.00,VWS V14.01,2013-07-06 11:15:00,
2013-07-06 07:20:00,72.8,71.3,30.07,SE,140,3.0,5.0,95,0.00,,OVC016,0.45,26.00,VWS V14.01,2013-07-06 11:20:00,
2013-07-06 07:25:00,72.8,71.3,30.07,SE,135,0.0,5.0,95,0.00,,OVC016,0.45,35.00,VWS V14.01,2013-07-06 11:25:00,
2013-07-06 07:30:00,72.8,71.3,30.07,SE,135,1.0,5.0,95,0.00,,OVC016,0.45,109.00,VWS V14.01,2013-07-06 11:30:00,
2013-07-06 07:35:00,73.2,71.7,30.07,SE,135,0.0,3.0,95,0.00,,OVC016,0.45,70.00,VWS V14.01,2013-07-06 11:35:00,
2013-07-06 07:40:00,73.5,71.7,30.07,SE,135,0.0,4.0,94,0.00,,OVC016,0.45,70.00,VWS V14.01,2013-07-06 11:40:00,
2013-07-06 07:45:00,73.5,71.7,30.07,SE,135,2.0,4.0,94,0.00,,OVC016,0.45,65.00,VWS V14.01,2013-07-06 11:45:00,
2013-07-06 07:50:00,73.5,71.4,30.07,SE,138,0.0,5.0,93,0.00,,OVC016,0.45,72.00,VWS V14.01,2013-07-06 11:50:00,
2013-07-06 07:55:00,73.5,71.4,30.07,SE,132,4.0,5.0,93,0.00,,OVC016,0.45,83.00,VWS V14.01,2013-07-06 11:55:00,
2013-07-06 08:00:00,73.7,71.6,30.07,SE,135,2.0,5.0,93,0.00,,OVC016,0.45,72.00,VWS V14.01,2013-07-06 12:00:00,
2013-07-06 08:05:00,73.7,71.6,30.07,SE,136,2.0,4.0,93,0.00,,OVC012,0.45,81.00,VWS V14.01,2013-07-06 12:05:00,
2013-07-06 08:10:00,73.9,71.8,30.07,SE,134,5.0,7.0,93,0.00,,OVC012,0.45,83.00,VWS V14.01,2013-07-06 12:10:00,
2013-07-06 08:15:00,73.9,72.1,30.07,SE,136,3.0,7.0,94,0.00,,OVC012,0.45,144.00,VWS V14.01,2013-07-06 12:15:00,
2013-07-06 08:20:00,74.0,71.8,30.07,SE,133,3.0,8.0,93,0.00,,OVC012,0.45,178.00,VWS V14.01,2013-07-06 12:20:00,
2013-07-06 08:25:00,74.2,71.7,30.07,SE,133,2.0,8.0,92,0.00,,OVC012,0.45,339.00,VWS V14.01,2013-07-06 12:25:00,
2013-07-06 08:30:00,74.7,71.9,30.08,SE,128,6.0,9.0,91,0.00,,OVC012,0.45,446.00,VWS V14.01,2013-07-06 12:30:00,
2013-07-06 08:35:00,75.1,71.6,30.08,SE,129,4.0,7.0,89,0.00,,OVC012,0.45,564.00,VWS V14.01,2013-07-06 12:35:00,
2013-07-06 08:40:00,75.3,71.8,30.08,SE,130,6.0,7.0,89,0.00,,OVC012,0.45,292.00,VWS V14.01,2013-07-06 12:40:00,
2013-07-06 08:45:00,74.9,70.8,30.07,ESE,123,6.0,11.0,87,0.00,,OVC012,0.45,327.00,VWS V14.01,2013-07-06 12:45:00,
2013-07-06 08:50:00,74.9,71.4,30.07,SE,134,3.0,11.0,89,0.00,,OVC012,0.45,294.00,VWS V14.01,2013-07-06 12:50:00,
2013-07-06 08:55:00,75.3,71.8,30.07,SE,142,4.0,11.0,89,0.00,,OVC012,0.45,246.00,VWS V14.01,2013-07-06 12:55:00,
2013-07-06 09:00:00,75.3,71.8,30.08,SE,138,5.0,11.0,89,0.00,,OVC012,0.45,174.00,VWS V14.01,2013-07-06 13:00:00,
2013-07-06 09:05:00,75.1,71.0,30.08,SE,144,5.0,9.0,87,0.00,,-RA,0.45,121.00,VWS V14.01,2013-07-06 13:05:00,
2013-07-06 09:10:00,75.1,71.6,30.08,SE,139,0.0,9.0,89,0.00,,-RA,0.45,137.00,VWS V14.01,2013-07-06 13:10:00,
2013-07-06 09:15:00,75.1,71.0,30.08,SSE,147,1.0,9.0,87,0.00,,-RA,0.45,81.00,VWS V14.01,2013-07-06 13:15:00,
2013-07-06 09:20:00,74.7,70.9,30.08,SSE,150,4.0,10.0,88,0.02,,OVC019,0.47,70.00,VWS V14.01,2013-07-06 13:20:00,
2013-07-06 09:25:00,74.4,71.3,30.08,SE,136,0.0,10.0,90,0.05,,OVC019,0.50,74.00,VWS V14.01,2013-07-06 13:25:00,
2013-07-06 09:30:00,74.2,71.4,30.07,SE,142,0.0,10.0,91,0.05,,OVC019,0.50,98.00,VWS V14.01,2013-07-06 13:30:00,
2013-07-06 09:35:00,74.4,71.9,30.07,SSE,149,4.0,6.0,92,0.05,,OVC019,0.50,165.00,VWS V14.01,2013-07-06 13:35:00,
2013-07-06 09:40:00,74.6,72.4,30.07,SSE,148,0.0,6.0,93,0.05,,OVC019,0.50,225.00,VWS V14.01,2013-07-06 13:40:00,
2013-07-06 09:45:00,74.6,72.1,30.08,SSE,148,0.0,6.0,92,0.05,,OVC019,0.50,318.00,VWS V14.01,2013-07-06 13:45:00,
2013-07-06 09:50:00,74.7,72.2,30.08,SSE,147,0.0,6.0,92,0.05,,OVC019,0.50,230.00,VWS V14.01,2013-07-06 13:50:00,
2013-07-06 09:55:00,74.9,72.1,30.08,SSE,148,0.0,6.0,91,0.05,,OVC019,0.50,450.00,VWS V14.01,2013-07-06 13:55:00,
2013-07-06 10:00:00,75.3,72.5,30.07,SSE,148,0.0,6.0,91,0.05,,OVC019,0.50,320.00,VWS V14.01,2013-07-06 14:00:00,
2013-07-06 10:05:00,75.8,71.7,30.07,SSE,148,0.0,2.0,87,0.05,,CLR,0.50,629.00,VWS V14.01,2013-07-06 14:05:00,
2013-07-06 10:10:00,76.3,71.5,30.07,SE,140,0.0,9.0,85,0.05,,CLR,0.50,821.00,VWS V14.01,2013-07-06 14:10:00,
2013-07-06 10:15:00,77.4,71.5,30.07,SSE,153,3.0,9.0,82,0.05,,CLR,0.50,524.00,VWS V14.01,2013-07-06 14:15:00,
2013-07-06 10:20:00,76.8,72.3,30.07,SSE,154,0.0,9.0,86,0.05,,CLR,0.50,972.00,VWS V14.01,2013-07-06 14:20:00,
2013-07-06 10:25:00,77.2,72.0,30.07,SSE,153,3.0,9.0,84,0.05,,CLR,0.50,1007.00,VWS V14.01,2013-07-06 14:25:00,
2013-07-06 10:30:00,77.6,71.7,30.06,SE,138,2.0,9.0,82,0.05,,CLR,0.50,490.00,VWS V14.01,2013-07-06 14:30:00,
2013-07-06 10:35:00,77.7,72.1,30.06,SSE,153,0.0,5.0,83,0.00,,CLR,0.50,972.00,VWS V14.01,2013-07-06 14:35:00,
2013-07-06 10:40:00,77.4,72.2,30.06,SSE,148,0.0,5.0,84,0.00,,CLR,0.50,248.00,VWS V14.01,2013-07-06 14:40:00,
2013-07-06 10:45:00,77.0,72.2,30.07,WSW,257,0.0,8.0,85,0.00,,CLR,0.50,176.00,VWS V14.01,2013-07-06 14:45:00,
2013-07-06 10:50:00,75.8,71.7,30.07,West,271,3.0,8.0,87,0.01,,CLR,0.51,192.00,VWS V14.01,2013-07-06 14:50:00,
2013-07-06 10:55:00,75.4,71.6,30.07,WNW,294,0.0,8.0,88,0.01,,CLR,0.51,325.00,VWS V14.01,2013-07-06 14:55:00,
2013-07-06 11:00:00,75.3,71.8,30.07,West,274,1.0,8.0,89,0.01,,CLR,0.51,229.00,VWS V14.01,2013-07-06 15:00:00,
2013-07-06 11:05:00,75.4,72.3,30.07,West,277,2.0,4.0,90,0.01,,BKN065,0.51,817.00,VWS V14.01,2013-07-06 15:05:00,
2013-07-06 11:10:00,75.8,72.7,30.07,WSW,253,0.0,4.0,90,0.01,,BKN065,0.51,911.00,VWS V14.01,2013-07-06 15:10:00,
2013-07-06 11:15:00,76.3,72.2,30.07,WNW,289,0.0,5.0,87,0.01,,BKN065,0.51,438.00,VWS V14.01,2013-07-06 15:15:00,
2013-07-06 11:20:00,76.8,71.2,30.07,SW,218,2.0,5.0,83,0.01,,BKN065,0.51,345.00,VWS V14.01,2013-07-06 15:20:00,
2013-07-06 11:25:00,77.2,72.0,30.07,SW,224,0.0,5.0,84,0.01,,BKN065,0.51,230.00,VWS V14.01,2013-07-06 15:25:00,
2013-07-06 11:30:00,77.0,71.8,30.07,WSW,244,0.0,5.0,84,0.01,,BKN065,0.51,267.00,VWS V14.01,2013-07-06 15:30:00,
2013-07-06 11:35:00,76.8,72.3,30.07,NW,315,1.0,5.0,86,0.01,,BKN065,0.51,807.00,VWS V14.01,2013-07-06 15:35:00,
2013-07-06 11:40:00,76.5,71.3,30.07,West,277,2.0,5.0,84,0.01,,BKN065,0.51,374.00,VWS V14.01,2013-07-06 15:40:00,
2013-07-06 11:45:00,76.5,72.0,30.07,WSW,245,0.0,5.0,86,0.01,,BKN065,0.51,322.00,VWS V14.01,2013-07-06 15:45:00,
2013-07-06 11:50:00,76.3,71.1,30.07,West,275,0.0,5.0,84,0.01,,BKN065,0.51,343.00,VWS V14.01,2013-07-06 15:50:00,
2013-07-06 11:55:00,76.3,71.1,30.07,WNW,288,1.0,5.0,84,0.01,,BKN065,0.51,246.00,VWS V14.01,2013-07-06 15:55:00,
2013-07-06 12:00:00,76.5,71.3,30.06,North,5,0.0,5.0,84,0.01,,BKN065,0.51,555.00,VWS V14.01,2013-07-06 16:00:00,
2013-07-06 12:05:00,76.8,71.9,30.06,ENE,64,0.0,1.0,85,0.00,,FEW075,0.51,250.00,VWS V14.01,2013-07-06 16:05:00,
2013-07-06 12:10:00,76.8,71.2,30.06,NNW,340,0.0,4.0,83,0.00,,FEW075,0.51,338.00,VWS V14.01,2013-07-06 16:10:00,
2013-07-06 12:15:00,77.0,70.7,30.06,West,279,0.0,4.0,81,0.00,,FEW075,0.51,387.00,VWS V14.01,2013-07-06 16:15:00,
2013-07-06 12:20:00,77.4,71.5,30.06,WSW,249,0.0,4.0,82,0.00,,FEW075,0.51,290.00,VWS V14.01,2013-07-06 16:20:00,
2013-07-06 12:25:00,77.7,71.4,30.06,SW,229,0.0,4.0,81,0.00,,FEW075,0.51,1130.00,VWS V14.01,2013-07-06 16:25:00,
2013-07-06 12:30:00,78.1,71.1,30.05,SSW,212,0.0,4.0,79,0.00,,FEW075,0.51,295.00,VWS V14.01,2013-07-06 16:30:00,
2013-07-06 12:35:00,78.5,70.7,30.05,North,351,0.0,1.0,77,0.00,,FEW075,0.51,229.00,VWS V14.01,2013-07-06 16:35:00,
2013-07-06 12:40:00,78.6,71.6,30.05,NE,55,0.0,1.0,79,0.00,,FEW075,0.51,118.00,VWS V14.01,2013-07-06 16:40:00,
2013-07-06 12:51:00,77.9,72.0,30.05,SSE,153,4.0,7.0,82,0.03,,FEW075,0.54,343.00,VWS V14.01,2013-07-06 16:51:00,
2013-07-06 12:57:00,76.7,71.2,30.05,SE,142,6.0,11.0,83,0.03,,FEW075,0.54,288.00,VWS V14.01,2013-07-06 16:57:00,
2013-07-06 13:00:00,76.5,71.3,30.06,NNE,19,0.0,5.0,84,0.01,,OVC065,0.51,555.00,VWS V14.01,2013-07-06 17:00:00,
2013-07-06 13:02:00,76.0,69.8,30.05,SSE,151,0.0,3.0,81,0.03,,FEW055,0.54,369.00,VWS V14.01,2013-07-06 17:02:00,
2013-07-06 13:07:00,75.8,70.3,30.05,SE,144,0.0,3.0,83,0.03,,FEW055,0.54,580.00,VWS V14.01,2013-07-06 17:07:00,
2013-07-06 13:12:00,76.0,69.4,30.05,SE,146,0.0,3.0,80,0.03,,FEW055,0.54,712.00,VWS V14.01,2013-07-06 17:12:00,
2013-07-06 13:17:00,76.5,69.9,30.05,SE,141,0.0,3.0,80,0.03,,FEW055,0.54,870.00,VWS V14.01,2013-07-06 17:17:00,
2013-07-06 13:22:00,77.2,69.8,30.05,SSE,162,1.0,3.0,78,0.03,,FEW055,0.54,932.00,VWS V14.01,2013-07-06 17:22:00,
2013-07-06 13:27:00,77.9,70.1,30.05,SSE,159,1.0,3.0,77,0.03,,FEW055,0.54,963.00,VWS V14.01,2013-07-06 17:27:00,
2013-07-06 13:30:00,78.3,71.3,30.05,SW,223,0.0,4.0,79,0.00,,OVC065,0.51,295.00,VWS V14.01,2013-07-06 17:30:00,
2013-07-06 13:32:00,78.1,70.3,30.04,SE,132,1.0,1.0,77,0.03,,FEW055,0.54,385.00,VWS V14.01,2013-07-06 17:32:00,
2013-07-06 13:37:00,78.1,69.9,30.04,SE,130,0.0,1.0,76,0.03,,FEW055,0.54,928.00,VWS V14.01,2013-07-06 17:37:00,
2013-07-06 13:42:00,78.5,70.3,30.04,South,177,0.0,1.0,76,0.03,,FEW055,0.54,942.00,VWS V14.01,2013-07-06 17:42:00,
2013-07-06 13:48:00,78.6,70.0,30.03,North,5,0.0,3.0,75,0.03,,FEW055,0.54,925.00,VWS V14.01,2013-07-06 17:48:00,
2013-07-06 13:54:00,79.0,70.8,30.03,NE,48,0.0,3.0,76,0.03,,FEW055,0.54,320.00,VWS V14.01,2013-07-06 17:54:00,
2013-07-06 13:59:00,79.6,71.8,30.03,NNE,24,2.0,3.0,77,0.03,,FEW055,0.54,403.00,VWS V14.01,2013-07-06 17:59:00,
2013-07-06 14:00:00,76.0,70.5,30.05,SSE,153,2.0,11.0,83,0.03,,OVC065,0.54,353.00,VWS V14.01,2013-07-06 18:00:00,
2013-07-06 14:04:00,79.9,71.7,30.03,NE,45,2.0,3.0,76,0.00,,BKN070,0.54,301.00,VWS V14.01,2013-07-06 18:04:00,
2013-07-06 14:09:00,79.8,71.2,30.03,NE,55,1.0,3.0,75,0.00,,BKN070,0.54,436.00,VWS V14.01,2013-07-06 18:09:00,
2013-07-06 14:14:00,79.9,71.3,30.03,NE,53,0.0,3.0,75,0.00,,BKN070,0.54,1092.00,VWS V14.01,2013-07-06 18:14:00,
2013-07-06 14:19:00,80.1,71.1,30.02,East,80,2.0,4.0,74,0.00,,BKN070,0.54,1013.00,VWS V14.01,2013-07-06 18:19:00,
2013-07-06 14:24:00,80.1,71.9,30.02,ENE,62,1.0,4.0,76,0.00,,BKN070,0.54,956.00,VWS V14.01,2013-07-06 18:24:00,
2013-07-06 14:29:00,80.1,71.5,30.02,East,88,0.0,4.0,75,0.00,,BKN070,0.54,954.00,VWS V14.01,2013-07-06 18:29:00,
2013-07-06 14:30:00,78.1,70.7,30.04,SSE,148,0.0,3.0,78,0.03,,OVC065,0.54,717.00,VWS V14.01,2013-07-06 18:30:00,
2013-07-06 14:35:00,80.3,71.3,30.01,ESE,106,0.0,3.0,74,0.00,,BKN070,0.54,972.00,VWS V14.01,2013-07-06 18:35:00,
2013-07-06 14:40:00,80.1,71.5,30.01,ESE,112,0.0,3.0,75,0.00,,BKN070,0.54,939.00,VWS V14.01,2013-07-06 18:40:00,
2013-07-06 14:45:00,80.3,71.7,30.01,ENE,74,0.0,4.0,75,0.00,,BKN070,0.54,933.00,VWS V14.01,2013-07-06 18:45:00,
2013-07-06 14:50:00,80.3,71.7,30.01,ENE,72,1.0,4.0,75,0.00,,BKN070,0.54,946.00,VWS V14.01,2013-07-06 18:50:00,
2013-07-06 14:56:00,80.7,71.7,30.01,East,101,0.0,4.0,74,0.00,,BKN070,0.54,969.00,VWS V14.01,2013-07-06 18:56:00,
2013-07-06 15:00:00,79.8,71.9,30.03,North,9,1.0,3.0,77,0.03,,OVC065,0.54,383.00,VWS V14.01,2013-07-06 19:00:00,
2013-07-06 15:01:00,81.1,71.6,30.00,SSE,158,0.0,0.0,73,0.00,,FEW035,0.54,283.00,VWS V14.01,2013-07-06 19:01:00,
2013-07-06 15:06:00,81.8,70.6,30.00,SSE,151,0.0,1.0,69,0.00,,FEW035,0.54,1025.00,VWS V14.01,2013-07-06 19:06:00,
2013-07-06 15:12:00,82.0,71.3,30.00,ESE,111,0.0,1.0,70,0.00,,FEW035,0.54,1074.00,VWS V14.01,2013-07-06 19:12:00,
2013-07-06 15:17:00,82.2,71.0,29.99,ESE,108,0.0,2.0,69,0.00,,FEW035,0.54,1014.00,VWS V14.01,2013-07-06 19:17:00,
2013-07-06 15:22:00,81.8,70.6,29.99,East,96,1.0,4.0,69,0.00,,FEW035,0.54,673.00,VWS V14.01,2013-07-06 19:22:00,
2013-07-06 15:28:00,82.0,71.7,29.99,ESE,117,0.0,5.0,71,0.00,,FEW035,0.54,976.00,VWS V14.01,2013-07-06 19:28:00,
2013-07-06 15:30:00,80.1,71.5,30.01,East,94,2.0,4.0,75,0.00,,OVC065,0.54,947.00,VWS V14.01,2013-07-06 19:30:00,
2013-07-06 15:33:00,82.4,71.6,29.99,SE,132,4.0,6.0,70,0.00,,FEW035,0.54,928.00,VWS V14.01,2013-07-06 19:33:00,
2013-07-06 15:38:00,83.2,70.7,29.99,SSE,153,3.0,6.0,66,0.00,,FEW035,0.54,283.00,VWS V14.01,2013-07-06 19:38:00,
2013-07-06 15:44:00,83.6,71.1,29.99,SE,143,2.0,6.0,66,0.00,,FEW035,0.54,1018.00,VWS V14.01,2013-07-06 19:44:00,
2013-07-06 15:49:00,84.1,71.1,29.98,SE,140,4.0,6.0,65,0.00,,FEW035,0.54,882.00,VWS V14.01,2013-07-06 19:49:00,
2013-07-06 15:54:00,84.7,70.7,29.98,SE,146,2.0,6.0,63,0.00,,FEW035,0.54,872.00,VWS V14.01,2013-07-06 19:54:00,
2013-07-06 16:00:00,84.9,70.4,29.97,SSE,156,3.0,6.0,62,0.00,,FEW035,0.54,870.00,VWS V14.01,2013-07-06 20:00:00,
2013-07-06 16:05:00,85.5,70.0,29.97,SE,143,2.0,6.0,60,0.00,,FEW036,0.54,884.00,VWS V14.01,2013-07-06 20:05:00,
2013-07-06 16:11:00,85.7,70.7,29.97,SSE,147,4.0,7.0,61,0.00,,FEW036,0.54,816.00,VWS V14.01,2013-07-06 20:11:00,
2013-07-06 16:16:00,85.1,72.5,29.96,ESE,117,6.0,7.0,66,0.00,,FEW036,0.54,816.00,VWS V14.01,2013-07-06 20:16:00,
2013-07-06 16:21:00,84.3,70.8,29.96,SE,128,4.0,7.0,64,0.00,,FEW036,0.54,830.00,VWS V14.01,2013-07-06 20:21:00,
2013-07-06 16:26:00,84.0,71.0,29.96,ESE,117,5.0,9.0,65,0.00,,FEW036,0.54,868.00,VWS V14.01,2013-07-06 20:26:00,
2013-07-06 16:30:00,82.0,72.5,29.99,ESE,117,4.0,5.0,73,0.00,,OVC065,0.54,872.00,VWS V14.01,2013-07-06 20:30:00,
2013-07-06 16:31:00,84.0,71.4,29.95,SE,134,5.0,5.0,66,0.00,,FEW036,0.54,860.00,VWS V14.01,2013-07-06 20:31:00,
2013-07-06 16:37:00,84.0,70.5,29.95,SSE,148,0.0,7.0,64,0.00,,FEW036,0.54,271.00,VWS V14.01,2013-07-06 20:37:00,
2013-07-06 16:42:00,84.0,71.4,29.95,SE,146,5.0,7.0,66,0.00,,FEW036,0.54,195.00,VWS V14.01,2013-07-06 20:42:00,
2013-07-06 16:47:00,83.6,71.9,29.96,SE,142,9.0,10.0,68,0.00,,FEW036,0.54,123.00,VWS V14.01,2013-07-06 20:47:00,
2013-07-06 16:52:00,82.6,73.1,29.96,SSE,148,7.0,14.0,73,0.00,,FEW036,0.54,49.00,VWS V14.01,2013-07-06 20:52:00,
2013-07-06 16:57:00,79.4,73.8,29.96,SE,132,7.0,15.0,83,0.11,,FEW036,0.65,95.00,VWS V14.01,2013-07-06 20:57:00,
2013-07-06 17:00:00,85.1,70.6,29.97,SSE,147,3.0,6.0,62,0.00,,OVC065,0.54,867.00,VWS V14.01,2013-07-06 21:00:00,
2013-07-06 17:02:00,77.9,72.0,29.98,SE,130,4.0,7.0,82,0.12,,OVC080,0.66,142.00,VWS V14.01,2013-07-06 21:02:00,
2013-07-06 17:07:00,77.7,72.8,29.98,ESE,123,2.0,10.0,85,0.13,,OVC080,0.67,236.00,VWS V14.01,2013-07-06 21:07:00,
2013-07-06 17:12:00,77.7,73.2,29.98,SE,128,5.0,10.0,86,0.13,,OVC080,0.67,647.00,VWS V14.01,2013-07-06 21:12:00,
2013-07-06 17:18:00,77.9,73.0,29.97,ESE,111,4.0,10.0,85,0.13,,OVC080,0.67,253.00,VWS V14.01,2013-07-06 21:18:00,
2013-07-06 17:24:00,77.7,72.5,29.97,SE,129,6.0,11.0,84,0.13,,OVC080,0.67,243.00,VWS V14.01,2013-07-06 21:24:00,
2013-07-06 17:29:00,77.7,72.5,29.97,ESE,113,6.0,11.0,84,0.13,,OVC080,0.67,357.00,VWS V14.01,2013-07-06 21:29:00,
2013-07-06 17:30:00,83.8,70.8,29.95,SE,136,3.0,9.0,65,0.00,,OVC065,0.54,860.00,VWS V14.01,2013-07-06 21:30:00,
2013-07-06 17:34:00,78.3,73.4,29.97,ESE,118,4.0,10.0,85,0.13,,OVC080,0.67,606.00,VWS V14.01,2013-07-06 21:34:00,
2013-07-06 17:39:00,78.6,73.4,29.97,SE,127,4.0,10.0,84,0.13,,OVC080,0.67,596.00,VWS V14.01,2013-07-06 21:39:00,
2013-07-06 17:44:00,79.0,73.4,29.97,SE,129,3.0,10.0,83,0.13,,OVC080,0.67,578.00,VWS V14.01,2013-07-06 21:44:00,
2013-07-06 17:49:00,79.2,72.9,29.97,SE,124,6.0,10.0,81,0.13,,OVC080,0.67,545.00,VWS V14.01,2013-07-06 21:49:00,
2013-07-06 17:54:00,79.4,73.4,29.97,SE,132,5.0,10.0,82,0.13,,OVC080,0.67,230.00,VWS V14.01,2013-07-06 21:54:00,
2013-07-06 17:59:00,79.8,73.4,29.97,SE,132,0.0,10.0,81,0.13,,OVC080,0.67,148.00,VWS V14.01,2013-07-06 21:59:00,
2013-07-06 18:00:00,78.1,72.2,29.98,SE,128,7.0,15.0,82,0.12,,OVC065,0.66,132.00,VWS V14.01,2013-07-06 22:00:00,
2013-07-06 18:04:00,79.9,73.6,29.98,SSE,156,2.0,3.0,81,0.01,,BKN075,0.67,179.00,VWS V14.01,2013-07-06 22:04:00,
2013-07-06 18:09:00,80.1,72.6,29.98,SE,133,5.0,5.0,78,0.01,,BKN075,0.67,171.00,VWS V14.01,2013-07-06 22:09:00,
2013-07-06 18:14:00,80.1,73.0,29.98,ESE,121,4.0,10.0,79,0.01,,BKN075,0.67,134.00,VWS V14.01,2013-07-06 22:14:00,
2013-07-06 18:19:00,80.1,73.0,29.97,SE,130,5.0,10.0,79,0.01,,BKN075,0.67,135.00,VWS V14.01,2013-07-06 22:19:00,
2013-07-06 18:24:00,80.1,73.0,29.97,SSE,147,0.0,10.0,79,0.01,,BKN075,0.67,137.00,VWS V14.01,2013-07-06 22:24:00,
2013-07-06 18:29:00,79.9,73.6,29.97,SE,142,5.0,10.0,81,0.01,,BKN075,0.67,149.00,VWS V14.01,2013-07-06 22:29:00,
2013-07-06 18:30:00,77.9,73.0,29.97,ESE,116,4.0,11.0,85,0.13,,OVC065,0.67,357.00,VWS V14.01,2013-07-06 22:30:00,
2013-07-06 18:35:00,79.6,72.1,29.97,SE,144,4.0,10.0,78,0.00,,BKN075,0.67,137.00,VWS V14.01,2013-07-06 22:35:00,
2013-07-06 18:40:00,79.6,71.8,29.97,SSE,167,4.0,10.0,77,0.00,,BKN075,0.67,104.00,VWS V14.01,2013-07-06 22:40:00,
2013-07-06 18:45:00,79.2,71.8,29.98,SSE,151,4.0,10.0,78,0.00,,BKN075,0.67,74.00,VWS V14.01,2013-07-06 22:45:00,
2013-07-06 18:50:00,78.8,71.4,29.98,SSE,165,1.0,10.0,78,0.00,,BKN075,0.67,72.00,VWS V14.01,2013-07-06 22:50:00,
2013-07-06 18:55:00,78.6,71.6,29.98,SSE,158,1.0,10.0,79,0.00,,BKN075,0.67,65.00,VWS V14.01,2013-07-06 22:55:00,
2013-07-06 19:00:00,78.5,71.1,29.97,SE,146,3.0,10.0,78,0.00,,BKN075,0.67,60.00,VWS V14.01,2013-07-06 23:00:00,
2013-07-06 19:05:00,78.3,71.6,29.97,SE,144,3.0,5.0,80,0.00,,BKN120,0.67,54.00,VWS V14.01,2013-07-06 23:05:00,
2013-07-06 19:11:00,77.9,71.2,29.97,SSE,150,4.0,6.0,80,0.00,,BKN120,0.67,51.00,VWS V14.01,2013-07-06 23:11:00,
2013-07-06 19:16:00,77.7,71.8,29.97,SE,144,3.0,6.0,82,0.00,,BKN120,0.67,49.00,VWS V14.01,2013-07-06 23:16:00,
2013-07-06 19:21:00,77.9,72.7,29.97,SE,136,3.0,6.0,84,0.00,,BKN120,0.67,53.00,VWS V14.01,2013-07-06 23:21:00,
2013-07-06 19:26:00,77.7,72.1,29.97,SE,137,0.0,6.0,83,0.00,,BKN120,0.67,56.00,VWS V14.01,2013-07-06 23:26:00,
2013-07-06 19:30:00,79.8,73.1,29.97,SE,134,0.0,10.0,80,0.01,,OVC065,0.67,146.00,VWS V14.01,2013-07-06 23:30:00,
2013-07-06 19:31:00,77.7,71.8,29.98,SE,144,3.0,3.0,82,0.00,,BKN120,0.67,62.00,VWS V14.01,2013-07-06 23:31:00,
2013-07-06 19:36:00,77.6,72.4,29.98,SE,137,1.0,4.0,84,0.00,,BKN120,0.67,65.00,VWS V14.01,2013-07-06 23:36:00,
2013-07-06 19:41:00,77.6,72.0,29.98,SE,142,0.0,5.0,83,0.00,,BKN120,0.67,62.00,VWS V14.01,2013-07-06 23:41:00,
2013-07-06 19:47:00,77.4,71.8,29.99,SE,140,2.0,5.0,83,0.00,,BKN120,0.67,54.00,VWS V14.01,2013-07-06 23:47:00,
2013-07-06 19:52:00,77.2,71.6,29.99,SE,141,0.0,5.0,83,0.00,,BKN120,0.67,49.00,VWS V14.01,2013-07-06 23:52:00,
2013-07-06 19:57:00,77.2,71.6,29.99,SE,140,0.0,5.0,83,0.00,,BKN120,0.67,47.00,VWS V14.01,2013-07-06 23:57:00,
2013-07-06 20:00:00,78.5,71.4,29.97,SE,146,1.0,10.0,79,0.00,,OVC065,0.67,58.00,VWS V14.01,2013-07-07 00:00:00,
2013-07-06 20:02:00,77.2,71.6,29.98,SE,140,0.0,0.0,83,0.00,,SCT049,0.67,53.00,VWS V14.01,2013-07-07 00:02:00,
2013-07-06 20:07:00,77.2,72.0,29.98,ESE,120,2.0,5.0,84,0.00,,SCT049,0.67,54.00,VWS V14.01,2013-07-07 00:07:00,
2013-07-06 20:13:00,77.0,72.2,29.98,East,100,4.0,5.0,85,0.00,,SCT049,0.67,44.00,VWS V14.01,2013-07-07 00:13:00,
2013-07-06 20:18:00,77.0,71.8,29.98,East,93,2.0,5.0,84,0.00,,SCT049,0.67,32.00,VWS V14.01,2013-07-07 00:18:00,
2013-07-06 20:23:00,76.8,71.9,29.98,East,94,0.0,5.0,85,0.00,,SCT049,0.67,23.00,VWS V14.01,2013-07-07 00:23:00,
2013-07-06 20:28:00,76.8,72.3,29.98,East,98,1.0,5.0,86,0.00,,SCT049,0.67,14.00,VWS V14.01,2013-07-07 00:28:00,
2013-07-06 20:30:00,77.7,71.8,29.98,SE,144,1.0,6.0,82,0.00,,OVC065,0.67,62.00,VWS V14.01,2013-07-07 00:30:00,
2013-07-06 20:33:00,77.0,72.8,29.98,East,101,0.0,0.0,87,0.00,,SCT049,0.67,11.00,VWS V14.01,2013-07-07 00:33:00,
2013-07-06 20:38:00,77.0,72.2,29.98,East,101,0.0,0.0,85,0.00,,SCT049,0.67,5.00,VWS V14.01,2013-07-07 00:38:00,
2013-07-06 20:43:00,77.2,73.0,29.98,ESE,103,2.0,4.0,87,0.00,,SCT049,0.67,0.00,VWS V14.01,2013-07-07 00:43:00,
2013-07-06 20:49:00,77.0,72.5,29.98,East,99,3.0,4.0,86,0.00,,SCT049,0.67,0.00,VWS V14.01,2013-07-07 00:49:00,
2013-07-06 20:54:00,77.0,72.5,29.98,East,101,0.0,4.0,86,0.00,,SCT049,0.67,0.00,VWS V14.01,2013-07-07 00:54:00,
2013-07-06 20:59:00,77.0,72.5,29.98,ESE,102,0.0,4.0,86,0.00,,SCT049,0.67,0.00,VWS V14.01,2013-07-07 00:59:00,
2013-07-06 21:00:00,77.0,71.4,29.98,SE,140,0.0,5.0,83,0.00,,OVC065,0.67,53.00,VWS V14.01,2013-07-07 01:00:00,
2013-07-06 21:04:00,77.0,72.8,29.98,East,93,0.0,0.0,87,0.00,,FEW110,0.67,0.00,VWS V14.01,2013-07-07 01:04:00,
2013-07-06 21:10:00,77.0,72.5,29.98,ESE,110,0.0,0.0,86,0.00,,FEW110,0.67,0.00,VWS V14.01,2013-07-07 01:10:00,
2013-07-06 21:15:00,77.0,72.8,29.99,SE,125,0.0,0.0,87,0.00,,FEW110,0.67,0.00,VWS V14.01,2013-07-07 01:15:00,
2013-07-06 21:20:00,77.2,73.4,29.99,SE,125,0.0,0.0,88,0.00,,FEW110,0.67,0.00,VWS V14.01,2013-07-07 01:20:00,
2013-07-06 21:25:00,77.2,73.4,29.99,SE,127,0.0,0.0,88,0.00,,FEW110,0.67,0.00,VWS V14.01,2013-07-07 01:25:00,
2013-07-06 21:30:00,77.0,73.2,30.00,SE,139,0.0,1.0,88,0.00,,FEW110,0.67,0.00,VWS V14.01,2013-07-07 01:30:00,
2013-07-06 21:35:00,76.8,73.0,30.00,SE,139,0.0,0.0,88,0.00,,FEW110,0.67,0.00,VWS V14.01,2013-07-07 01:35:00,
2013-07-06 21:40:00,76.8,73.0,30.00,SE,139,0.0,0.0,88,0.00,,FEW110,0.67,0.00,VWS V14.01,2013-07-07 01:40:00,
2013-07-06 21:45:00,76.7,72.9,30.01,SE,139,0.0,0.0,88,0.00,,FEW110,0.67,0.00,VWS V14.01,2013-07-07 01:45:00,
2013-07-06 21:50:00,76.7,72.5,30.01,SE,146,0.0,1.0,87,0.00,,FEW110,0.67,0.00,VWS V14.01,2013-07-07 01:50:00,
2013-07-06 21:56:00,76.8,72.3,30.01,SE,146,0.0,1.0,86,0.00,,FEW110,0.67,0.00,VWS V14.01,2013-07-07 01:56:00,
2013-07-06 22:00:00,77.0,72.5,29.98,East,94,0.0,4.0,86,0.00,,OVC065,0.67,0.00,VWS V14.01,2013-07-07 02:00:00,
2013-07-06 22:01:00,76.7,71.9,30.01,SE,146,0.0,0.0,85,0.00,,BKN050,0.67,0.00,VWS V14.01,2013-07-07 02:01:00,
2013-07-06 22:06:00,76.7,72.2,30.01,SE,143,0.0,0.0,86,0.00,,BKN050,0.67,0.00,VWS V14.01,2013-07-07 02:06:00,
2013-07-06 22:11:00,76.7,72.2,30.01,SE,144,0.0,0.0,86,0.00,,BKN050,0.67,0.00,VWS V14.01,2013-07-07 02:11:00,
2013-07-06 22:16:00,76.7,72.5,30.01,SE,144,0.0,0.0,87,0.00,,BKN050,0.67,0.00,VWS V14.01,2013-07-07 02:16:00,
2013-07-06 22:21:00,76.7,72.5,30.01,SE,144,0.0,0.0,87,0.00,,BKN050,0.67,0.00,VWS V14.01,2013-07-07 02:21:00,
2013-07-06 22:26:00,76.5,72.3,30.01,SSE,155,0.0,0.0,87,0.00,,BKN050,0.67,0.00,VWS V14.01,2013-07-07 02:26:00,
2013-07-06 22:30:00,77.0,73.2,30.00,SE,139,0.0,1.0,88,0.00,,OVC065,0.67,0.00,VWS V14.01,2013-07-07 02:30:00,
2013-07-06 22:32:00,76.5,72.3,30.02,SE,136,0.0,0.0,87,0.00,,BKN050,0.67,0.00,VWS V14.01,2013-07-07 02:32:00,
2013-07-06 22:37:00,76.5,72.3,30.02,SE,136,0.0,0.0,87,0.00,,BKN050,0.67,0.00,VWS V14.01,2013-07-07 02:37:00,
2013-07-06 22:42:00,76.5,72.3,30.02,SE,136,0.0,0.0,87,0.00,,BKN050,0.67,0.00,VWS V14.01,2013-07-07 02:42:00,
2013-07-06 22:48:00,76.3,72.2,30.02,SE,136,0.0,0.0,87,0.00,,BKN050,0.67,0.00,VWS V14.01,2013-07-07 02:48:00,
2013-07-06 22:53:00,76.3,72.2,30.02,SE,136,0.0,0.0,87,0.00,,BKN050,0.67,0.00,VWS V14.01,2013-07-07 02:53:00,
2013-07-06 22:58:00,76.1,71.9,30.02,SE,140,0.0,0.0,87,0.00,,BKN050,0.67,0.00,VWS V14.01,2013-07-07 02:58:00,
2013-07-06 23:00:00,76.7,71.9,30.01,SSE,147,0.0,1.0,85,0.00,,OVC065,0.67,0.00,VWS V14.01,2013-07-07 03:00:00,
2013-07-06 23:03:00,76.1,72.3,30.03,SE,139,0.0,0.0,88,0.00,,SCT110,0.00,0.00,VWS V14.01,2013-07-07 03:03:00,
2013-07-06 23:09:00,76.0,71.9,30.03,SE,142,0.0,1.0,87,0.00,,SCT110,0.00,0.00,VWS V14.01,2013-07-07 03:09:00,
2013-07-06 23:14:00,76.0,72.5,30.03,SE,143,0.0,1.0,89,0.00,,SCT110,0.00,0.00,VWS V14.01,2013-07-07 03:14:00,
2013-07-06 23:20:00,76.0,72.5,30.03,SE,138,0.0,1.0,89,0.00,,SCT110,0.00,0.00,VWS V14.01,2013-07-07 03:20:00,
2013-07-06 23:25:00,75.8,72.3,30.03,SE,140,0.0,1.0,89,0.00,,SCT110,0.00,0.00,VWS V14.01,2013-07-07 03:25:00,
2013-07-06 23:30:00,75.8,72.7,30.03,SE,142,0.0,2.0,90,0.00,,SCT110,0.00,0.00,VWS V14.01,2013-07-07 03:30:00,
2013-07-06 23:35:00,75.6,72.5,30.03,SE,144,0.0,0.0,90,0.00,,SCT110,0.00,0.00,VWS V14.01,2013-07-07 03:35:00,
2013-07-06 23:41:00,75.4,72.3,30.03,SSE,148,0.0,1.0,90,0.00,,BKN012,0.00,0.00,VWS V14.01,2013-07-07 03:41:00,
2013-07-06 23:46:00,75.4,72.6,30.02,SE,142,1.0,1.0,91,0.00,,BKN012,0.00,0.00,VWS V14.01,2013-07-07 03:46:00,
2013-07-06 23:51:00,75.4,72.6,30.02,SE,144,0.0,1.0,91,0.00,,BKN012,0.00,0.00,VWS V14.01,2013-07-07 03:51:00,
2013-07-06 23:56:00,75.3,72.5,30.02,SSE,148,0.0,1.0,91,0.01,,BKN012,0.01,0.00,VWS V14.01,2013-07-07 03:56:00,